Location: Hall+in+Tirol
(47.2830°N, 11.5170°E)
Time: 01:38:42
(UTC+02:00)

Daily predictions for brighter satellites

Satellite Brightness Start Highest point End
(mag) Time Altitude Azimuth Time Altitude Azimuth Time Altitude Azimuth
NOSS 3-2 (A) 3.9 00:00:05 10° NW 00:07:31 76° SW 00:09:16 57° SSE
Mayak 1.2 00:05:09 10° NE 00:06:05 14° ENE 00:06:05 14° ENE
Cosmos 1844 3.8 00:02:44 10° NNW 00:08:20 64° WSW 00:08:27 64° WSW
Cosmos 2333 Rocket 2.5 00:09:42 52° ENE 00:09:42 52° ENE 00:14:25 10° NE
Cosmos 724 4.1 00:04:19 10° NW 00:10:13 77° WSW 00:10:20 76° SW
CZ-2C R/B 3.1 00:06:21 10° NNE 00:10:55 49° ENE 00:10:55 49° ENE
Cosmos 2360 Rocket 3.5 00:07:26 14° WSW 00:11:44 37° NW 00:16:58 10° NNE
ALOS 2 3.5 00:14:25 43° NNE 00:14:25 43° NNE 00:17:49 10° N
Cosmos 1437 Rocket 4.2 00:16:44 35° NW 00:16:44 35° NW 00:19:54 10° N
Cosmos 2333 4.4 00:19:42 61° WSW 00:20:28 68° WNW 00:26:06 10° NNE
SL-08 ROCKET BODY 4.4 00:26:30 67° E 00:26:30 67° E 00:32:12 10° NNE
Meteor 2-13 Rocket 4.4 00:32:48 70° E 00:32:51 70° E 00:39:00 10° NNE
ATLAS 3B R/B 3.9 00:28:24 10° WNW 00:33:36 25° WSW 00:33:49 25° WSW
Cosmos 2237 Rocket 2.4 00:39:30 58° ENE 00:39:30 58° ENE 00:44:15 10° NNE
COSMOS 2455 3.5 00:35:50 10° NNW 00:41:40 48° NE 00:42:50 43° E
NOSS 3-2 (C) 4.0 00:35:42 10° NW 00:43:04 63° WSW 00:43:58 59° SSW
Cosmos 1980 3.8 00:44:14 70° ENE 00:44:14 70° ENE 00:49:22 10° NNE
H-2A R/B 4.3 00:45:10 17° W 00:45:10 17° W 00:47:24 10° NW
Cosmos 1953 Rocket 4.5 00:40:43 10° N 00:44:00 48° NNW 00:44:00 48° NNW
CZ-2C R/B 3.6 00:47:17 45° WNW 00:47:17 45° WNW 00:51:04 10° NNW
Lacrosse 5 2.7 00:44:40 31° W 00:46:38 47° NNW 00:51:33 10° NE
ATLAS CENTAUR R/B 3.4 00:44:08 10° NNW 00:46:24 23° NNE 00:46:24 23° NNE
Cosmos 2184 Rocket 3.9 00:48:58 71° E 00:48:58 71° E 00:55:08 10° NNE
Cosmos 2297 3.7 00:49:18 10° NNW 00:54:47 73° NE 00:54:47 73° NE
Cosmos 2074 Rocket 3.8 00:56:13 83° ESE 00:56:21 83° E 01:02:38 10° N
Cosmos 1992 Rocket 4.4 00:57:34 57° NW 00:57:34 57° NW 01:02:32 10° NNE
Cosmos 972 Rocket 4.4 01:00:55 65° WNW 01:00:55 65° WNW 01:06:46 10° NNE
Nadezhda 3 Rocket 4.2 00:54:46 10° N 01:01:03 58° ENE 01:01:31 57° E
ATLAS 2AS CENTAUR R/B 4.4 00:56:41 10° W 01:03:59 37° NNW 01:11:28 10° NE
Meteor 2-5 Rocket 3.8 01:00:01 10° NNW 01:05:42 82° NW 01:05:42 82° NW
NOSS 0 Rocket 4.0 01:06:30 66° W 01:07:05 70° WNW 01:13:20 10° NNE
Cosmos 1818 4.3 01:09:12 43° WNW 01:10:06 47° NW 01:15:23 10° NNE
NOSS 3-4 (A) 3.5 01:12:04 66° W 01:12:51 75° NW 01:19:27 10° NE
NOSS 3-4 (C) 3.5 01:12:12 67° W 01:12:57 75° NW 01:19:33 10° NE
Cosmos 968 Rocket 4.4 01:08:58 10° NNW 01:12:38 38° WNW 01:12:38 38° WNW
Cosmos 2278 Rocket 3.2 01:08:39 10° NW 01:12:54 35° W 01:12:54 35° W
CZ-4B R/B 4.3 01:17:37 16° N 01:17:37 16° N 01:18:25 10° N
Meteor 1-24 Rocket 3.8 01:14:57 10° N 01:20:33 81° NE 01:20:33 81° NE
Cosmos 2058 Rocket 4.2 01:26:40 41° NNW 01:26:40 41° NNW 01:29:47 10° N
Cosmos 1610 Rocket 4.3 01:27:28 84° WSW 01:27:34 85° W 01:33:51 10° N
CENTAUR R/B 3.0 01:21:28 10° NW 01:29:17 77° SW 01:30:38 64° S
RESURS DK-1 3.9 01:32:39 35° NNE 01:32:39 35° NNE 01:35:11 10° NNE
Iridium 4 Rocket 4.1 01:32:24 47° NE 01:32:24 47° NE 01:35:46 10° N
USA 215 3.3 01:33:12 58° WSW 01:33:12 58° WSW 01:39:01 10° WNW
ATLAS CENTAUR R/B 2.7 01:28:13 10° NW 01:38:02 80° NW 01:38:02 80° NW
SL-16 R/B 2.2 01:43:47 79° NNE 01:43:47 79° NNE 01:49:07 10° NNE
Mayak 0.2 01:40:01 10° N 01:42:44 34° NNW 01:42:44 34° NNW
Cosmos 489 Rocket 4.4 01:37:45 10° NNW 01:44:00 79° ENE 01:44:22 76° ESE
Cosmos 2219 Rocket 3.8 01:42:10 22° W 01:44:12 28° NW 01:49:02 10° N
Cosmos 2154 Rocket 3.9 01:47:13 77° WSW 01:47:25 78° W 01:53:39 10° N
Cosmos 1953 4.1 01:52:14 28° NE 01:52:14 28° NE 01:54:29 10° NNE
CZ-2C R/B 4.1 01:47:14 10° N 01:51:36 26° WNW 01:52:26 25° WNW
Cosmos 2333 Rocket 3.7 01:51:41 24° W 01:53:30 28° NW 01:58:23 10° N
GEOS 3 Rocket 4.3 01:58:42 45° WNW 01:58:42 45° WNW 02:02:30 10° NW
CZ-3A R/B 4.1 01:46:37 10° WNW 02:03:23 73° NNE 02:09:02 10° ESE
Cosmos 2208 Rocket 4.4 02:06:19 58° E 02:06:19 58° E 02:11:16 10° NNE
ADEOS Rocket 4.1 02:01:13 10° NE 02:05:55 28° E 02:06:31 27° ESE
Cosmos 1959 Rocket 4.5 02:12:13 62° ESE 02:12:47 66° E 02:18:50 10° NNE
NOSS 2-2 (D) 4.3 02:16:13 53° N 02:16:13 53° N 02:20:17 10° NE
SL-16 R/B 4.0 02:12:25 15° ESE 02:16:49 32° ENE 02:22:14 10° N
Okean 3 Rocket 4.3 02:13:57 10° N 02:17:28 53° N 02:17:28 53° N
Cosmos-2242 4.4 02:21:13 33° ENE 02:21:13 33° ENE 02:24:45 10° NNE
Cosmos 1943 Rocket 3.2 02:16:43 10° NNW 02:21:57 42° NE 02:24:50 24° ESE
Cosmos 1076 Rocket 4.3 02:17:57 10° N 02:21:13 50° N 02:21:13 50° N
Cosmos 2237 Rocket 3.8 02:21:18 21° WNW 02:23:13 25° NW 02:27:50 10° N
Cosmos 2369 Rocket 2.3 02:19:28 10° NNW 02:25:12 71° ENE 02:26:09 59° ESE
SL-8 Rocket 3.8 02:26:03 73° SSW 02:26:41 85° W 02:32:57 10° N
COSMOS 2455 3.9 02:22:02 10° NW 02:25:57 32° W 02:25:57 32° W
Cosmos 2218 Rocket 3.9 02:27:10 69° S 02:28:02 84° E 02:34:29 10° N
H-2A R/B 3.5 02:24:46 10° NNE 02:27:19 40° N 02:27:19 40° N
Lacrosse 5 3.8 02:26:15 10° WNW 02:30:35 27° N 02:34:56 10° NE
Helios 1A Rocket 4.2 02:27:10 10° NNE 02:30:17 35° ENE 02:30:17 35° ENE
Cosmos 371 Rocket 4.0 02:32:53 46° E 02:32:53 46° E 02:37:12 10° NNE
Cosmos 2084 Rocket 4.4 02:36:05 41° N 02:36:05 41° N 02:39:09 10° NNE
NOSS 2-2 (C) 4.4 02:35:57 45° NW 02:35:57 45° NW 02:40:38 10° NNE
Cosmos 1943 3.6 02:38:03 48° ESE 02:38:27 49° ESE 02:43:54 10° NE
PSLV R/B 4.0 02:35:09 10° N 02:39:17 61° NW 02:39:17 61° NW
Resurs 1-4 Rocket 3.7 02:38:02 10° NE 02:42:22 25° E 02:43:58 22° ESE
CZ-2D R/B 3.7 02:40:22 10° NE 02:44:53 26° E 02:46:38 22° ESE
Meteor 2-14 Rocket 4.3 02:44:33 68° SSW 02:45:23 83° W 02:51:35 10° N
SL-08 R/B 3.4 02:49:15 64° ESE 02:49:37 67° ENE 02:54:21 10° N
Cosmos 1570 Rocket 4.3 02:50:37 55° WNW 02:50:52 55° WNW 02:56:03 10° NNE
PSLV R/B 4.5 02:52:21 54° NNW 02:52:21 54° NNW 02:55:37 10° NNW
Cosmos 1898 Rocket 3.6 02:47:25 10° NNW 02:52:11 60° W 02:52:11 60° W
Cosmos 1763 Rocket 4.0 02:53:46 45° ESE 02:54:12 47° ESE 02:59:04 10° NNE
Cosmos 1937 Rocket 3.3 02:49:11 10° NNW 02:54:30 83° WSW 02:54:45 79° SSW
Cosmos 1766 Rocket 3.9 02:50:10 10° NNW 02:53:47 56° NW 02:53:47 56° NW
Cosmos 1743 Rocket 3.8 02:57:32 10° N 03:01:59 62° ENE 03:02:20 60° ESE
Cosmos 1408 Rocket 4.0 03:00:38 10° NNW 03:04:11 51° NW 03:04:11 51° NW
Cosmos 2263 4.0 02:59:22 10° NNW 03:05:01 81° WSW 03:06:02 61° S
Cosmos 2150 Rocket 3.8 03:00:38 10° NNW 03:05:47 71° WSW 03:05:51 71° WSW
Cosmos 1339 Rocket 4.5 02:59:46 10° NNW 03:05:48 60° W 03:06:40 54° SW
SL-14 R/B 3.9 03:04:27 10° NNW 03:07:36 50° NW 03:07:36 50° NW
Cosmos 2058 3.7 03:04:52 10° N 03:08:51 45° ENE 03:09:33 41° ESE
Meteor 1-11 4.2 03:04:16 10° N 03:09:54 77° ENE 03:11:47 44° SSE
Cosmos 468 Rocket 3.8 03:10:08 68° WSW 03:10:38 75° WNW 03:15:49 10° NNE
UNK 3.9 03:13:14 49° SE 03:14:18 67° ENE 03:18:51 10° N
Gblst 52 Del rocket 4.4 03:13:46 51° S 03:14:33 55° SE 03:20:03 10° ENE
Cosmos 2298 Rocket 4.2 03:10:12 10° NNW 03:15:12 53° W 03:15:12 53° W
SL-24 R/B - RUBIN 2 4.4 03:15:18 51° SSW 03:17:02 78° SE 03:23:10 10° NE
Cosmos 1603 4.2 03:17:05 41° W 03:18:20 48° NW 03:23:47 10° NNE
CENTAUR R/B 4.4 03:13:37 10° WNW 03:17:45 20° W 03:17:45 20° W
Cosmos 1727 Rocket 4.3 03:13:57 10° NNW 03:19:49 47° W 03:20:40 44° WSW
Cosmos 1242 Rocket 3.4 03:20:23 43° E 03:20:23 43° E 03:23:42 10° NNE
Cosmos 2366 rocket 4.4 03:19:11 41° WSW 03:20:32 47° WNW 03:26:39 10° N
Cosmos 1470 4.1 03:22:17 28° NW 03:22:17 28° NW 03:25:00 10° N
Cosmos 990 Rocket 4.0 03:16:42 10° NNW 03:21:50 55° WSW 03:21:52 55° WSW
USA 32 4.2 03:17:55 10° N 03:23:11 70° E 03:25:12 38° SSE
Cosmos 2151 3.0 03:21:11 10° N 03:25:24 76° E 03:25:56 65° SE
Cosmos 1953 4.3 03:27:58 18° WNW 03:27:58 18° WNW 03:30:12 10° NNW
SL-16 R/B 4.1 03:25:39 15° WNW 03:28:21 20° NW 03:32:28 10° N
MOS 1 Rocket 4.0 03:24:42 10° NNE 03:28:49 43° E 03:30:08 33° SE
Cosmos 1814 Rocket 4.0 03:28:20 56° SW 03:29:24 75° WNW 03:34:41 10° NNE
Cosmos 1703 3.3 03:26:38 10° N 03:30:34 72° E 03:30:56 65° SE
Cosmos 1626 2.1 03:34:11 10° NNW 03:37:43 76° NW 03:37:43 76° NW
NPP 3.8 03:32:57 10° N 03:38:17 62° WNW 03:39:44 45° SW
ARIANE 5 R/B 2.8 03:34:01 10° NNE 03:39:14 63° ESE 03:41:27 34° S
Cosmos 841 Rocket 3.4 03:38:40 50° SSW 03:40:05 89° ESE 03:45:19 10° NNE
Cosmos 967 Rocket 4.4 03:42:21 40° SSW 03:44:48 86° ESE 03:51:11 10° NE
Cosmos 1500 Rocket 3.6 03:42:58 10° NNW 03:47:19 59° W 03:47:49 55° SW
IRS-1C 4.2 03:45:46 10° N 03:51:04 66° WNW 03:52:54 40° SW
ADEOS Rocket 3.2 03:46:27 10° N 03:51:43 45° WNW 03:53:27 34° WSW
Cosmos 1726 4.2 03:51:56 12° SE 03:54:28 23° E 03:57:28 10° NE
ADEOS 3.6 03:51:59 10° NNE 03:57:14 78° ESE 03:59:51 30° S
Cosmos-2242 4.3 03:58:06 25° WNW 03:58:25 25° WNW 04:02:05 10° NNW
IRS-1D 3.5 03:53:56 10° NNE 03:59:03 79° WNW 04:01:15 36° SSW
SL-16 R/B 2.7 03:57:31 32° SSW 04:00:12 51° W 04:06:16 10° NNW
ERBS 2.6 04:01:21 10° NW 04:04:48 70° NE 04:08:13 10° ESE
Cosmos 1943 Rocket 2.7 04:00:41 10° NW 04:05:36 34° WSW 04:06:16 33° WSW
Helios 1A Rocket 4.5 04:02:54 10° NNW 04:06:02 22° WNW 04:06:34 21° WNW
Spot 4 Rocket 4.1 04:01:47 10° N 04:06:55 67° WNW 04:09:11 33° SW
Cosmos 1908 3.2 04:06:45 39° S 04:08:04 79° E 04:11:55 10° NNE
Cosmos 2369 Rocket 3.6 04:04:37 10° NW 04:07:52 19° W 04:07:52 19° W
Cosmos 1315 Rocket 3.8 04:07:13 10° N 04:11:10 47° ENE 04:15:03 10° SSE
Cosmos 2098 Rocket 3.8 04:08:33 28° SSW 04:11:59 68° W 04:17:11 10° N
Cosmos 2123 Rocket 4.0 04:06:16 10° NNW 04:12:30 67° W 04:17:06 19° S
Cosmos 1666 Rocket 4.2 04:08:27 10° N 04:12:49 56° ENE 04:17:11 10° SSE
Lacrosse 5 3.5 04:10:01 10° NW 04:14:42 36° NNE 04:19:22 10° E
Cosmos 1805 Rocket 3.5 04:10:45 10° N 04:15:14 88° ENE 04:18:43 16° S
BREEZE M DEB (TANK) 2.9 04:17:34 31° SE 04:17:34 31° SE 04:18:51 10° ESE
Cosmos 1656 Rocket 3.7 04:12:46 10° NNW 04:18:23 60° WSW 04:23:57 10° S
Cosmos 1821 Rocket 4.3 04:15:17 28° SW 04:18:24 50° WNW 04:24:27 10° N
Okean O Rocket 4.1 04:17:36 10° NE 04:20:50 19° E 04:24:01 10° SE
Resurs 1-4 Rocket 2.4 04:17:23 10° N 04:22:27 49° WNW 04:25:02 27° SW
Cosmos 1943 4.3 04:19:52 21° W 04:22:44 32° NW 04:27:49 10° NNE
Cosmos 1300 4.0 04:21:22 10° SSE 04:24:52 38° E 04:28:26 10° NNE
CZ-2D R/B 2.5 04:20:01 10° N 04:25:12 48° WNW 04:27:56 26° SW
Cosmos 2221 2.6 04:23:45 30° SSW 04:25:46 63° WNW 04:30:05 10° N
Cosmos 372 Rocket 4.1 04:26:10 10° NNW 04:31:09 51° WSW 04:36:09 10° S
SL-27 R/B 4.0 04:28:53 12° SSE 04:31:31 30° ESE 04:34:33 10° NE
USA 161 1.7 04:30:54 24° SE 04:31:52 45° ENE 04:33:51 10° N
BREEZE-M DEB (TANK) 2.7 04:34:07 23° W 04:36:08 75° S 04:43:35 10° E
Cosmos 1934 Rocket 4.3 04:33:55 22° SW 04:37:28 46° WNW 04:43:18 10° N
Cosmos 292 Rocket 4.3 04:34:41 14° S 04:38:45 58° ESE 04:43:29 10° NNE
Cosmos 1125 Rocket 4.1 04:40:04 10° NW 04:44:43 34° WSW 04:48:40 14° SSW
Cosmos 540 Rocket 3.8 04:43:21 21° SW 04:46:33 51° WNW 04:51:33 10° NNE
MOZ.5/SAFIR/RUBIN 5/SL-8 4.4 04:44:19 20° SSW 04:46:53 34° W 04:51:08 10° NNW
Cosmos 1400 Rocket 3.4 04:43:25 10° NNW 04:47:00 35° W 04:49:03 21° SW
Cosmos 1605 Rocket 4.2 04:42:09 17° SSW 04:47:04 57° WNW 04:53:24 10° N
CZ-3B DEB 1.0 04:50:24 20° N 04:50:24 20° N 04:51:24 10° NNE
UNKNOWN OBJECT B 3.4 04:47:53 10° N 04:51:43 43° WNW 04:54:14 19° SW
PSLV R/B 4.5 04:51:39 21° SSW 04:52:41 25° S 04:55:26 10° ESE
USA 229 DEB 3.9 04:46:05 10° NW 04:52:59 52° WSW 05:00:01 10° SSE
USA 229 3.9 04:46:12 10° NW 04:53:06 53° WSW 05:00:07 10° SSE
Sich 1 3.2 04:50:21 10° NNW 04:54:40 54° W 04:58:54 10° S
NOSS 3-1 (A) 4.2 04:50:46 10° NW 04:58:14 79° NE 05:06:35 10° SE
In-Cosmos 22 Rocket 4.1 04:53:09 10° N 04:58:39 88° E 05:03:59 10° S
Cosmos 2228 Rocket 3.6 04:54:14 10° S 04:58:40 63° E 05:03:06 10° NNE
EP 1 4.1 04:58:06 25° SW 04:59:26 75° NW 05:02:06 10° NE
Cosmos 482 Debris 3.3 04:59:09 10° WNW 05:01:20 77° NNE 05:04:40 10° ESE
Cosmos 1538 Rocket 4.5 04:59:17 10° S 05:04:35 65° ESE 05:09:55 10° NNE
Cosmos 1470 Rocket 3.6 05:00:43 10° N 05:05:04 83° E 05:09:23 10° S
Gblst 52 Del rocket 4.5 05:00:43 11° W 05:06:18 65° NNW 05:11:47 10° ENE
BREEZE-M DEB (TANK) 3.8 05:07:21 11° SSW 05:07:21 11° SSW 05:07:36 10° S
COSMOS 2406 3.3 05:02:28 14° SW 05:07:25 67° WNW 05:13:07 10° NNE
CZ-2D R/B 4.3 05:04:13 10° N 05:07:53 33° WNW 05:10:43 14° SW
Cosmos 2016 Rocket 4.4 05:02:21 10° S 05:08:23 66° E 05:14:27 10° NNE
Abrixas 2.0 05:08:15 12° W 05:10:35 65° SSW 05:13:11 10° ESE
OPS 8737 4.5 05:12:25 12° SW 05:15:38 80° SE 05:19:00 10° NE
Cosmos 1802 Rocket 4.1 05:10:05 10° S 05:16:17 88° E 05:22:36 10° N
Cosmos 1515 Rocket 3.7 05:13:02 10° S 05:17:24 82° E 05:21:51 10° N
Cosmos 1892 3.1 05:13:37 10° N 05:17:26 67° E 05:21:15 10° SSE
ADEOS II 2.1 05:12:11 10° NNE 05:17:28 82° WNW 05:22:43 10° SSW
ARIANE 5 R/B 4.0 05:14:00 10° NNW 05:17:54 22° WNW 05:21:46 10° WSW
Cosmos 1633 Rocket 3.7 05:15:36 10° NNW 05:19:36 36° W 05:23:36 10° SSW
Cosmos 2100 Rocket 4.1 05:15:14 10° SSW 05:21:35 70° W 05:27:58 10° N
Landsat 4 3.7 05:18:31 10° SSE 05:22:15 86° ENE 05:26:02 10° NNW
Cosmos 2285 Rocket 4.3 05:20:30 10° SW 05:26:41 53° WNW 05:32:58 10° NNE
Cosmos 1833 Rocket 4.3 05:21:42 10° SSE 05:26:43 34° ESE 05:31:45 10° NE
USA 234 4.3 05:22:38 10° ENE 05:28:46 40° SE 05:34:51 10° SSW
NOSS 3-1 (C) 4.1 05:21:48 10° NW 05:29:12 62° WSW 05:37:24 10° SSE
Cosmos 1726 3.3 05:26:34 10° SW 05:29:41 26° WNW 05:32:51 10° NNW
Tsikada Rocket 4.3 05:25:45 10° N 05:32:04 78° E 05:38:25 10° SSE
Cosmos 2278 3.7 05:28:29 10° NNW 05:34:11 85° WSW 05:39:50 10° SSE
Cosmos 1980 Rocket 4.0 05:29:53 10° NNW 05:35:06 38° NE 05:40:18 10° ESE
Cosmos 1825 4.4 05:35:04 10° N 05:38:32 32° ENE 05:41:58 10° SE
